Weather History for KOGA - March, 2014

Change the Weather History Date:

Wednesday, March 5, 2014

  Actual Average (KIML) Record (KIML)
Temperature  
Mean Temperature 36 °F 37 °F  
Max Temperature 43 °F 51 °F 79 °F (1910)
Min Temperature 30 °F 23 °F -15 °F (1943)
Degree Days  
Heating Degree Days 28 28  
Month to date heating degree days 145  
Cooling Degree Days 0 0  
Month to date cooling degree days 0  
Year to date cooling degree days 0  
Moisture  
Dew Point 31 °F    
Average Humidity 84    
Maximum Humidity 92    
Minimum Humidity 72    
Precipitation  
Precipitation 0.00 in 0.03 in 2.06 in (1983)
Sea Level Pressure  
Sea Level Pressure 30.10 in    
Wind  
Wind Speed 2 mph (SSE)    
Max Wind Speed 8 mph    
Max Gust Speed -    
Visibility 10 miles    
Events      
T = Trace of Precipitation, MM = Missing Value Source: NWS Daily Summary

Daily Weather History Graph

Daily Weather History Graph

Search for Another Location

Airport or City:

Trip Planner

Search our weather history database for the weather conditions in past years. The results will help you decide how hot, cold, wet, or windy it might be!

Date:

Astronomy

Mar. 05, 2014 Rise Set
Actual Time 6:14 AM MST 5:42 PM MST
Civil Twilight 5:47 AM MST 6:10 PM MST
Nautical Twilight 5:15 AM MST 6:42 PM MST
Astronomical Twilight 4:43 AM MST 7:14 PM MST
Moon 8:39 AM MST (3/5) 10:56 PM MST (3/5)
Length of Visible Light 12h 22m
Length of Day
11h 27m
Waxing Crescent, 24% of the Moon is Illuminated
Mar 5
Waxing Crescent
Mar 8
First Quarter
Mar 16
Full
Mar 23
Last Quarter
Mar 30
New

Hourly Weather History & Observations

Time (MST) Temp. Windchill Dew Point Humidity Pressure Visibility Wind Dir Wind Speed Gust Speed Precip Events Conditions
12:15 AM 32.9 °F 29.8 °F 29.8 °F 88% 30.05 in 10.0 mi NE 3.5 mph - N/A   Overcast
12:35 AM 32.7 °F 28.3 °F 29.5 °F 88% 30.05 in 10.0 mi East 4.6 mph - N/A   Overcast
12:55 AM 32.5 °F 29.3 °F 29.5 °F 88% 30.06 in 10.0 mi NNE 3.5 mph - N/A   Overcast
1:15 AM 32.9 °F 28.5 °F 29.3 °F 87% 30.06 in 10.0 mi NE 4.6 mph - N/A   Overcast
1:35 AM 32.4 °F 29.1 °F 29.1 °F 88% 30.07 in 10.0 mi East 3.5 mph - N/A   Overcast
1:55 AM 32.0 °F - 29.3 °F 90% 30.08 in 10.0 mi Calm Calm - N/A   Overcast
2:15 AM 32.0 °F - 29.1 °F 89% 30.09 in 10.0 mi Calm Calm - N/A   Overcast
2:35 AM 32.0 °F - 29.3 °F 90% 30.08 in 10.0 mi Calm Calm - N/A   Overcast
2:55 AM 32.2 °F - 29.3 °F 89% 30.09 in 10.0 mi Calm Calm - N/A   Overcast
3:15 AM 32.4 °F - 29.8 °F 90% 30.09 in 10.0 mi Calm Calm - N/A   Overcast
3:35 AM 32.2 °F - 29.5 °F 90% 30.09 in 10.0 mi Calm Calm - N/A   Overcast
3:55 AM 32.0 °F - 29.3 °F 90% 30.09 in 10.0 mi Calm Calm - N/A   Overcast
4:15 AM 32.0 °F - 29.3 °F 90% 30.09 in 10.0 mi Calm Calm - N/A   Overcast
4:35 AM 32.0 °F - 29.5 °F 90% 30.10 in 10.0 mi Calm Calm - N/A   Overcast
4:55 AM 31.8 °F - 28.9 °F 89% 30.11 in 10.0 mi Calm Calm - N/A   Overcast
5:15 AM 31.6 °F - 28.6 °F 88% 30.11 in 10.0 mi Calm Calm - N/A   Overcast
5:35 AM 31.1 °F - 28.2 °F 89% 30.11 in 10.0 mi Calm Calm - N/A   Overcast
5:55 AM 30.9 °F - 28.0 °F 89% 30.12 in 10.0 mi Calm Calm - N/A   Overcast
6:15 AM 31.1 °F - 28.4 °F 90% 30.12 in 10.0 mi Calm Calm - N/A   Overcast
6:35 AM 31.8 °F - 29.1 °F 90% 30.13 in 10.0 mi Calm Calm - N/A   Overcast
6:55 AM 32.0 °F - 29.7 °F 91% 30.13 in 10.0 mi Calm Calm - N/A   Overcast
7:15 AM 32.2 °F - 30.2 °F 92% 30.13 in 10.0 mi Calm Calm - N/A   Overcast
7:35 AM 32.9 °F 28.5 °F 30.2 °F 90% 30.14 in 10.0 mi NW 4.6 mph - N/A   Overcast
7:55 AM 32.5 °F - 30.2 °F 91% 30.15 in 10.0 mi Calm Calm - N/A   Overcast
8:15 AM 32.9 °F - 30.2 °F 90% 30.15 in 10.0 mi Calm Calm - N/A   Overcast
8:35 AM 32.9 °F - 30.2 °F 90% 30.16 in 10.0 mi Calm Calm - N/A   Overcast
8:55 AM 32.9 °F - 30.0 °F 89% 30.17 in 10.0 mi Calm Calm - N/A   Overcast
9:15 AM 33.6 °F - 30.4 °F 88% 30.17 in 10.0 mi Calm Calm - N/A   Overcast
9:35 AM 33.6 °F - 29.8 °F 86% 30.17 in 10.0 mi Calm Calm - N/A   Overcast
9:55 AM 33.8 °F - 30.2 °F 87% 30.17 in 10.0 mi Calm Calm - N/A   Overcast
10:15 AM 34.2 °F - 30.6 °F 87% 30.17 in 10.0 mi Calm Calm - N/A   Overcast
10:35 AM 34.5 °F - 30.6 °F 85% 30.16 in 10.0 mi Calm Calm - N/A   Overcast
10:55 AM 35.6 °F - 31.5 °F 85% 30.16 in 10.0 mi Calm Calm - N/A   Overcast
11:15 AM 36.0 °F - 31.5 °F 84% 30.16 in 10.0 mi Calm Calm - N/A   Overcast
11:35 AM 37.0 °F - 32.0 °F 82% 30.15 in 10.0 mi Calm Calm - N/A   Overcast
11:55 AM 38.3 °F 34.8 °F 32.5 °F 80% 30.15 in 10.0 mi SE 4.6 mph - N/A   Mostly Cloudy
12:15 PM 38.3 °F 35.9 °F 32.5 °F 80% 30.15 in 10.0 mi SW 3.5 mph - N/A   Overcast
12:35 PM 38.5 °F 36.1 °F 32.7 °F 80% 30.13 in 10.0 mi SSW 3.5 mph - N/A   Overcast
12:55 PM 39.2 °F - 32.5 °F 77% 30.12 in 10.0 mi Calm Calm - N/A   Overcast
1:15 PM 39.7 °F 34.9 °F 33.8 °F 79% 30.11 in 10.0 mi SSE 6.9 mph - N/A   Overcast
1:35 PM 41.0 °F 37.1 °F 34.7 °F 78% 30.11 in 10.0 mi SSE 5.8 mph - N/A   Scattered Clouds
1:55 PM 41.4 °F 36.2 °F 34.7 °F 77% 30.11 in 10.0 mi SSE 8.1 mph - N/A   Scattered Clouds
2:15 PM 41.5 °F 37.1 °F 34.7 °F 77% 30.11 in 10.0 mi South 6.9 mph - N/A   Scattered Clouds
2:35 PM 42.8 °F 39.3 °F 35.1 °F 74% 30.10 in 10.0 mi SSW 5.8 mph - N/A   Scattered Clouds
2:55 PM 42.8 °F 38.0 °F 35.6 °F 76% 30.10 in 10.0 mi SSE 8.1 mph - N/A   Clear
3:15 PM 42.8 °F 38.0 °F 35.4 °F 75% 30.09 in 10.0 mi SSE 8.1 mph - N/A   Clear
3:35 PM 43.5 °F 39.4 °F 35.4 °F 73% 30.09 in 10.0 mi South 6.9 mph - N/A   Clear
3:50 PM 43.7 °F 41.1 °F 35.4 °F 73% 30.09 in 10.0 mi SSE 4.6 mph - N/A   Clear
4:15 PM 43.7 °F 41.1 °F 35.2 °F 72% 30.08 in 10.0 mi SSE 4.6 mph - N/A   Clear
4:35 PM 42.8 °F 40.1 °F 34.9 °F 74% 30.08 in 10.0 mi SSE 4.6 mph - N/A   Clear
4:55 PM 42.1 °F 37.7 °F 34.9 °F 76% 30.08 in 10.0 mi SE 6.9 mph - N/A   Clear
5:15 PM 40.8 °F 37.8 °F 34.5 °F 78% 30.08 in 10.0 mi ESE 4.6 mph - N/A   Clear
5:35 PM 39.2 °F 37.0 °F 33.8 °F 81% 30.08 in 10.0 mi ESE 3.5 mph - N/A   Clear
5:55 PM 38.1 °F 35.7 °F 32.9 °F 81% 30.08 in 10.0 mi ESE 3.5 mph - N/A   Clear
6:15 PM 36.9 °F 34.3 °F 32.4 °F 84% 30.07 in 10.0 mi East 3.5 mph - N/A   Clear
6:35 PM 36.1 °F - 32.0 °F 85% 30.08 in 10.0 mi Calm Calm - N/A   Clear
6:55 PM 36.5 °F - 32.0 °F 84% 30.08 in 10.0 mi Calm Calm - N/A   Clear
7:15 PM 36.5 °F - 31.6 °F 83% 30.08 in 10.0 mi Calm Calm - N/A   Clear
7:35 PM 36.5 °F - 31.3 °F 81% 30.08 in 10.0 mi Calm Calm - N/A   Clear
7:55 PM 36.5 °F 33.9 °F 30.9 °F 80% 30.08 in 10.0 mi SSE 3.5 mph - N/A   Clear
8:15 PM 35.8 °F 33.0 °F 30.4 °F 81% 30.08 in 10.0 mi South 3.5 mph - N/A   Clear
8:35 PM 36.0 °F - 30.2 °F 80% 30.08 in 10.0 mi Calm Calm - N/A   Clear
8:55 PM 35.2 °F - 29.8 °F 81% 30.08 in 10.0 mi Calm Calm - N/A   Clear
9:15 PM 34.7 °F - 29.5 °F 81% 30.07 in 10.0 mi Calm Calm - N/A   Clear
9:35 PM 34.2 °F - 29.3 °F 82% 30.07 in 10.0 mi Calm Calm - N/A   Clear
9:55 PM 34.0 °F - 29.1 °F 82% 30.07 in 10.0 mi Calm Calm - N/A   Clear
10:15 PM 33.8 °F 30.8 °F 28.9 °F 82% 30.07 in 10.0 mi WSW 3.5 mph - N/A   Clear
10:35 PM 33.6 °F - 28.8 °F 82% 30.06 in 10.0 mi Calm Calm - N/A   Clear
10:55 PM 33.3 °F - 28.8 °F 84% 30.06 in 10.0 mi Calm Calm - N/A   Clear
11:15 PM 33.4 °F - 28.8 °F 83% 30.05 in 10.0 mi Calm Calm - N/A   Clear
11:35 PM 33.8 °F 30.8 °F 28.9 °F 82% 30.04 in 10.0 mi SSW 3.5 mph - N/A   Clear
11:55 PM 33.3 °F 30.2 °F 28.8 °F 84% 30.04 in 10.0 mi NW 3.5 mph - N/A   Clear